NWA1223 KBHM-KCLT

Flight info

Callsign NWA1223
Flight time 0h 50m
Altitude 37000
Route CHEHA BESTT JONZE5
Aircraft B738/M-SDE2E3FGHIRWXY/LB1

Departure

Time 2026-04-26 17:31
Airport Birmingham-Shuttlesworth International Airport (KBHM)

Arrival

Time 2026-04-26 18:21
Airport Charlotte Douglas International Airport (KCLT)
Time Latitude Longitude Altitude Speed Heading
2026-04-26 17:03 33.56272 -86.75271 639 ft 0 kts 146°
2026-04-26 17:17 33.56281 -86.75278 640 ft 2 kts 146°
2026-04-26 17:17 33.56295 -86.75289 640 ft 2 kts 146°
2026-04-26 17:18 33.56308 -86.75300 641 ft 2 kts 146°
2026-04-26 17:18 33.56322 -86.75311 643 ft 2 kts 147°
2026-04-26 17:18 33.56335 -86.75321 642 ft 1 kts 147°
2026-04-26 17:20 33.56330 -86.75308 642 ft 3 kts 111°
2026-04-26 17:21 33.56321 -86.75307 643 ft 1 kts 197°
2026-04-26 17:21 33.56316 -86.75320 643 ft 3 kts 252°
2026-04-26 17:21 33.56304 -86.75358 642 ft 8 kts 238°
2026-04-26 17:21 33.56272 -86.75428 642 ft 10 kts 257°
2026-04-26 17:22 33.56244 -86.75510 641 ft 12 kts 238°
2026-04-26 17:22 33.56192 -86.75598 639 ft 13 kts 234°
2026-04-26 17:22 33.56176 -86.75702 641 ft 13 kts 282°
2026-04-26 17:22 33.56147 -86.75797 639 ft 13 kts 237°
2026-04-26 17:23 33.56090 -86.75889 637 ft 14 kts 235°
2026-04-26 17:23 33.56030 -86.75992 640 ft 16 kts 235°
2026-04-26 17:23 33.55957 -86.76119 635 ft 21 kts 235°
2026-04-26 17:23 33.55869 -86.76275 636 ft 23 kts 235°
2026-04-26 17:24 33.55773 -86.76438 626 ft 25 kts 236°
2026-04-26 17:24 33.55676 -86.76606 632 ft 24 kts 235°
2026-04-26 17:24 33.55586 -86.76765 622 ft 23 kts 236°
2026-04-26 17:24 33.55499 -86.76919 616 ft 22 kts 236°
2026-04-26 17:25 33.55436 -86.77031 622 ft 10 kts 237°
2026-04-26 17:25 33.55424 -86.77058 617 ft 1 kts 253°
2026-04-26 17:25 33.55423 -86.77069 617 ft 3 kts 262°
2026-04-26 17:25 33.55445 -86.77111 615 ft 13 kts 330°
2026-04-26 17:26 33.55516 -86.77088 619 ft 2 kts 53°
2026-04-26 17:26 33.55519 -86.77083 616 ft 1 kts 54°
2026-04-26 17:26 33.55524 -86.77075 620 ft 5 kts 57°
2026-04-26 17:26 33.55532 -86.76989 616 ft 12 kts 115°
2026-04-26 17:27 33.55466 -86.76966 622 ft 12 kts 229°
2026-04-26 17:27 33.55430 -86.77040 618 ft 6 kts 242°
2026-04-26 17:27 33.55426 -86.77057 618 ft 0 kts 257°
2026-04-26 17:29 33.55425 -86.77076 617 ft 6 kts 274°
2026-04-26 17:29 33.55441 -86.77108 616 ft 7 kts 313°
2026-04-26 17:29 33.55499 -86.77116 617 ft 7 kts 38°
2026-04-26 17:29 33.55528 -86.77069 624 ft 8 kts 56°
2026-04-26 17:30 33.55625 -86.76904 618 ft 55 kts 54°
2026-04-26 17:30 33.55980 -86.76286 627 ft 122 kts 54°
2026-04-26 17:30 33.56576 -86.75260 673 ft 174 kts 55°
2026-04-26 17:30 33.57304 -86.73988 1201 ft 194 kts 56°
2026-04-26 17:31 33.58144 -86.72581 1593 ft 223 kts 54°
2026-04-26 17:31 33.58653 -86.70717 1795 ft 251 kts 92°
2026-04-26 17:31 33.58085 -86.68676 2206 ft 268 kts 121°
2026-04-26 17:31 33.57078 -86.66729 2838 ft 279 kts 122°
2026-04-26 17:32 33.56075 -86.64748 3843 ft 279 kts 120°
2026-04-26 17:32 33.55154 -86.62663 4657 ft 287 kts 117°
2026-04-26 17:32 33.54281 -86.60524 5666 ft 283 kts 117°
2026-04-26 17:32 33.53425 -86.58393 6512 ft 286 kts 117°
2026-04-26 17:33 33.52552 -86.56229 7230 ft 291 kts 116°
2026-04-26 17:33 33.51657 -86.54020 7953 ft 297 kts 116°
2026-04-26 17:33 33.50747 -86.51781 8694 ft 301 kts 116°
2026-04-26 17:34 33.48881 -86.47203 10156 ft 310 kts 116°
2026-04-26 17:34 33.47933 -86.44869 10859 ft 313 kts 116°
2026-04-26 17:34 33.46982 -86.42518 11577 ft 315 kts 116°
2026-04-26 17:34 33.46036 -86.40179 12280 ft 318 kts 116°
2026-04-26 17:35 33.45056 -86.37744 12894 ft 326 kts 116°
2026-04-26 17:35 33.44058 -86.35260 13341 ft 339 kts 117°
2026-04-26 17:35 33.43003 -86.32632 13497 ft 361 kts 116°
2026-04-26 17:35 33.41892 -86.29873 13792 ft 376 kts 116°
2026-04-26 17:36 33.40759 -86.27060 14285 ft 382 kts 116°
2026-04-26 17:36 33.39604 -86.24188 14907 ft 384 kts 116°
2026-04-26 17:36 33.38437 -86.21291 15505 ft 388 kts 116°
2026-04-26 17:36 33.37259 -86.18367 16067 ft 392 kts 116°
2026-04-26 17:37 33.36061 -86.15409 16617 ft 397 kts 116°
2026-04-26 17:37 33.34853 -86.12427 17159 ft 401 kts 116°
2026-04-26 17:37 33.33627 -86.09407 17705 ft 405 kts 116°
2026-04-26 17:38 33.31139 -86.03287 18732 ft 413 kts 116°
2026-04-26 17:38 33.29876 -86.00192 19258 ft 415 kts 116°
2026-04-26 17:38 33.28602 -85.97082 19754 ft 418 kts 116°
2026-04-26 17:38 33.27317 -85.93959 20256 ft 421 kts 116°
2026-04-26 17:39 33.26017 -85.90814 20741 ft 424 kts 117°
2026-04-26 17:39 33.24700 -85.87639 21190 ft 428 kts 116°
2026-04-26 17:39 33.23356 -85.84406 21269 ft 442 kts 116°
2026-04-26 17:39 33.21971 -85.81077 21365 ft 453 kts 116°
2026-04-26 17:40 33.20552 -85.77670 21451 ft 464 kts 116°
2026-04-26 17:40 33.20064 -85.76505 21477 ft 467 kts 117°
2026-04-26 17:40 33.17615 -85.70638 21596 ft 482 kts 116°
2026-04-26 17:40 33.16102 -85.67023 21652 ft 490 kts 116°
2026-04-26 17:41 33.14572 -85.63354 21720 ft 497 kts 117°
2026-04-26 17:41 33.13026 -85.59644 21838 ft 502 kts 117°
2026-04-26 17:41 33.11479 -85.55948 22167 ft 495 kts 116°
2026-04-26 17:41 33.09936 -85.52288 22603 ft 493 kts 116°
2026-04-26 17:42 33.08390 -85.48645 23130 ft 490 kts 116°
2026-04-26 17:42 33.06869 -85.45026 23542 ft 489 kts 117°
2026-04-26 17:42 33.05347 -85.41376 23724 ft 493 kts 117°
2026-04-26 17:42 33.03795 -85.37710 23869 ft 498 kts 115°
2026-04-26 17:43 33.02208 -85.34026 24041 ft 501 kts 115°
2026-04-26 17:43 33.00642 -85.30309 24273 ft 502 kts 117°
2026-04-26 17:43 32.99103 -85.26581 24578 ft 502 kts 118°
2026-04-26 17:43 32.97533 -85.22867 24897 ft 502 kts 115°
2026-04-26 17:44 32.95934 -85.19170 25175 ft 503 kts 115°
2026-04-26 17:44 32.94890 -85.15275 25402 ft 503 kts 96°
2026-04-26 17:44 32.94956 -85.11151 25727 ft 497 kts 76°
2026-04-26 17:44 32.96122 -85.07344 26098 ft 486 kts 56°
2026-04-26 17:45 32.98174 -85.04213 26459 ft 478 kts 43°
2026-04-26 17:45 33.00351 -85.01212 26781 ft 481 kts 47°
2026-04-26 17:45 33.02381 -84.98033 27070 ft 484 kts 50°
2026-04-26 17:45 33.04291 -84.94719 27420 ft 485 kts 52°
2026-04-26 17:46 33.06118 -84.91337 27814 ft 485 kts 53°
2026-04-26 17:46 33.07901 -84.87928 28214 ft 484 kts 53°
2026-04-26 17:46 33.09670 -84.84512 28570 ft 485 kts 53°
2026-04-26 17:46 33.11449 -84.81082 28786 ft 488 kts 53°
2026-04-26 17:47 33.13247 -84.77635 28995 ft 491 kts 53°
2026-04-26 17:47 33.13859 -84.76464 29054 ft 492 kts 53°
2026-04-26 17:47 33.16895 -84.70682 29427 ft 496 kts 53°
2026-04-26 17:47 33.18723 -84.67204 29767 ft 496 kts 53°
2026-04-26 17:48 33.20560 -84.63707 30153 ft 494 kts 53°
2026-04-26 17:48 33.22383 -84.60236 30484 ft 493 kts 53°
2026-04-26 17:48 33.24203 -84.56768 30733 ft 494 kts 53°
2026-04-26 17:48 33.26030 -84.53284 30966 ft 495 kts 52°
2026-04-26 17:49 33.27859 -84.49791 31226 ft 495 kts 52°
2026-04-26 17:49 33.29685 -84.46301 31500 ft 495 kts 52°
2026-04-26 17:49 33.31507 -84.42813 31774 ft 495 kts 52°
2026-04-26 17:49 33.33332 -84.39316 32023 ft 496 kts 52°
2026-04-26 17:50 33.35159 -84.35813 32287 ft 496 kts 52°
2026-04-26 17:50 33.36983 -84.32312 32541 ft 496 kts 51°
2026-04-26 17:50 33.38189 -84.29996 32696 ft 496 kts 51°
2026-04-26 17:50 33.40013 -84.26489 32957 ft 496 kts 51°
2026-04-26 17:51 33.41835 -84.22982 33215 ft 496 kts 51°
2026-04-26 17:51 33.43655 -84.19477 33463 ft 496 kts 51°
2026-04-26 17:51 33.45473 -84.15970 33698 ft 496 kts 51°
2026-04-26 17:51 33.47290 -84.12463 33937 ft 496 kts 51°
2026-04-26 17:52 33.49108 -84.08951 34165 ft 496 kts 51°
2026-04-26 17:52 33.50922 -84.05442 34380 ft 495 kts 51°
2026-04-26 17:52 33.52730 -84.01940 34635 ft 493 kts 51°
2026-04-26 17:52 33.54532 -83.98450 34879 ft 492 kts 51°
2026-04-26 17:53 33.56332 -83.94961 35094 ft 492 kts 51°
2026-04-26 17:53 33.58116 -83.91465 35307 ft 493 kts 53°
2026-04-26 17:53 33.59640 -83.87747 35508 ft 501 kts 63°
2026-04-26 17:54 33.61675 -83.79683 35926 ft 506 kts 69°
2026-04-26 17:54 33.62603 -83.75615 36117 ft 505 kts 68°
2026-04-26 17:54 33.63537 -83.71616 36313 ft 504 kts 68°
2026-04-26 17:54 33.64512 -83.67582 36517 ft 503 kts 67°
2026-04-26 17:55 33.65501 -83.63559 36699 ft 502 kts 67°
2026-04-26 17:55 33.66518 -83.59567 36881 ft 499 kts 64°
2026-04-26 17:55 33.67849 -83.55758 36966 ft 491 kts 54°
2026-04-26 17:56 33.71294 -83.48732 36987 ft 487 kts 51°
2026-04-26 17:57 33.78258 -83.34677 36992 ft 493 kts 52°
2026-04-26 17:57 33.81708 -83.27538 37003 ft 495 kts 52°
2026-04-26 17:58 33.89008 -83.13585 36996 ft 491 kts 49°
2026-04-26 17:59 33.94641 -83.03374 36978 ft 481 kts 49°
2026-04-26 17:59 33.98263 -82.96649 35989 ft 490 kts 51°
2026-04-26 18:00 34.00008 -82.93060 34787 ft 501 kts 54°
2026-04-26 18:00 34.01634 -82.89336 34006 ft 500 kts 55°
2026-04-26 18:00 34.03321 -82.85706 32880 ft 495 kts 51°
2026-04-26 18:00 34.05102 -82.82196 32417 ft 482 kts 51°
2026-04-26 18:01 34.06814 -82.78815 32107 ft 466 kts 50°
2026-04-26 18:01 34.08557 -82.75523 31126 ft 466 kts 50°
2026-04-26 18:01 34.10343 -82.72214 29754 ft 476 kts 51°
2026-04-26 18:01 34.12175 -82.68864 28455 ft 479 kts 51°
2026-04-26 18:02 34.14098 -82.65562 27535 ft 479 kts 47°
2026-04-26 18:02 34.15471 -82.63477 26965 ft 480 kts 46°
2026-04-26 18:02 34.18238 -82.59227 25905 ft 482 kts 49°
2026-04-26 18:02 34.20143 -82.55915 25390 ft 478 kts 53°
2026-04-26 18:03 34.21778 -82.52450 25029 ft 472 kts 60°
2026-04-26 18:03 34.23052 -82.48814 24616 ft 469 kts 68°
2026-04-26 18:03 34.23889 -82.45011 23991 ft 470 kts 77°
2026-04-26 18:03 34.24361 -82.41094 23213 ft 472 kts 76°
2026-04-26 18:04 34.25454 -82.37388 22128 ft 469 kts 57°
2026-04-26 18:04 34.27463 -82.34363 20797 ft 470 kts 36°
2026-04-26 18:04 34.30060 -82.32150 21242 ft 434 kts 29°
2026-04-26 18:05 34.34579 -82.27720 21043 ft 410 kts 42°
2026-04-26 18:05 34.36414 -82.25151 21020 ft 398 kts 48°
2026-04-26 18:05 34.38031 -82.22502 21015 ft 385 kts 50°
2026-04-26 18:05 34.39517 -82.19830 21017 ft 382 kts 53°
2026-04-26 18:06 34.40953 -82.17109 21025 ft 386 kts 53°
2026-04-26 18:06 34.42394 -82.14341 21025 ft 389 kts 53°
2026-04-26 18:06 34.43837 -82.11571 21007 ft 388 kts 53°
2026-04-26 18:06 34.45278 -82.08818 21004 ft 387 kts 53°
2026-04-26 18:07 34.46722 -82.06069 21012 ft 386 kts 53°
2026-04-26 18:07 34.48167 -82.03325 21005 ft 385 kts 53°
2026-04-26 18:07 34.49606 -82.00593 21017 ft 385 kts 53°
2026-04-26 18:07 34.50561 -81.98781 21019 ft 385 kts 53°
2026-04-26 18:08 34.52490 -81.95118 21002 ft 385 kts 53°
2026-04-26 18:08 34.53930 -81.92379 21006 ft 385 kts 53°
2026-04-26 18:08 34.55369 -81.89642 21011 ft 385 kts 53°
2026-04-26 18:08 34.56809 -81.86899 21010 ft 385 kts 53°
2026-04-26 18:09 34.58249 -81.84156 21007 ft 385 kts 53°
2026-04-26 18:09 34.59688 -81.81411 21006 ft 386 kts 53°
2026-04-26 18:09 34.61128 -81.78662 21007 ft 386 kts 53°
2026-04-26 18:09 34.62568 -81.75911 21002 ft 386 kts 53°
2026-04-26 18:10 34.64005 -81.73163 21004 ft 386 kts 53°
2026-04-26 18:10 34.65425 -81.70446 21001 ft 386 kts 53°
2026-04-26 18:10 34.66882 -81.67655 21002 ft 386 kts 53°
2026-04-26 18:10 34.68320 -81.64898 21010 ft 387 kts 53°
2026-04-26 18:11 34.69743 -81.62170 20999 ft 388 kts 53°
2026-04-26 18:11 34.71185 -81.59401 20992 ft 388 kts 53°
2026-04-26 18:11 34.72626 -81.56633 20984 ft 387 kts 53°
2026-04-26 18:11 34.74062 -81.53871 20996 ft 386 kts 53°
2026-04-26 18:12 34.75485 -81.51108 20994 ft 385 kts 56°
2026-04-26 18:12 34.76784 -81.48252 20724 ft 391 kts 58°
2026-04-26 18:12 34.78129 -81.45267 19219 ft 417 kts 57°
2026-04-26 18:12 34.79341 -81.41898 17155 ft 457 kts 73°
2026-04-26 18:13 34.79812 -81.38083 17002 ft 437 kts 86°
2026-04-26 18:13 34.79637 -81.34732 18691 ft 359 kts 96°
2026-04-26 18:13 34.79615 -81.31892 19171 ft 326 kts 78°
2026-04-26 18:13 34.79902 -81.30072 18173 ft 341 kts 72°
2026-04-26 18:14 34.80935 -81.26089 15367 ft 394 kts 70°
2026-04-26 18:14 34.81953 -81.22994 14574 ft 389 kts 66°
2026-04-26 18:14 34.83012 -81.19953 13466 ft 390 kts 65°
2026-04-26 18:14 34.84198 -81.16983 11773 ft 397 kts 59°
2026-04-26 18:15 34.85705 -81.14062 9942 ft 415 kts 54°
2026-04-26 18:15 34.87364 -81.11254 8456 ft 407 kts 52°
2026-04-26 18:15 34.89067 -81.08481 7099 ft 405 kts 52°
2026-04-26 18:15 34.90874 -81.05980 6832 ft 373 kts 41°
2026-04-26 18:16 34.92785 -81.04119 6880 ft 339 kts 35°
2026-04-26 18:16 34.96769 -81.01043 5004 ft 337 kts 37°
2026-04-26 18:16 34.98588 -80.99399 4772 ft 314 kts 34°
2026-04-26 18:17 35.00354 -80.97947 4166 ft 307 kts 36°
2026-04-26 18:17 35.02135 -80.96377 3338 ft 320 kts 34°
2026-04-26 18:17 35.03905 -80.94979 3917 ft 285 kts 33°
2026-04-26 18:17 35.05525 -80.93736 3727 ft 269 kts 30°
2026-04-26 18:18 35.07275 -80.93064 3032 ft 265 kts 15°
2026-04-26 18:18 35.08985 -80.92682 3194 ft 224 kts
2026-04-26 18:18 35.10388 -80.92741 3359 ft 187 kts
2026-04-26 18:18 35.11697 -80.92636 3015 ft 192 kts
2026-04-26 18:19 35.12905 -80.92687 3277 ft 158 kts 357°
2026-04-26 18:19 35.14040 -80.92720 2841 ft 165 kts
2026-04-26 18:19 35.15156 -80.92946 2421 ft 165 kts 349°
2026-04-26 18:19 35.16301 -80.93138 1872 ft 166 kts
2026-04-26 18:20 35.17448 -80.93216 1415 ft 165 kts
2026-04-26 18:20 35.18571 -80.93306 1139 ft 157 kts 359°
2026-04-26 18:20 35.19634 -80.93386 871 ft 147 kts
2026-04-26 18:20 35.20286 -80.93443 753 ft 131 kts
2026-04-26 18:21 35.21315 -80.93524 742 ft 95 kts 356°
2026-04-26 18:21 35.21863 -80.93566 746 ft 51 kts 356°
2026-04-26 18:21 35.22080 -80.93632 748 ft 19 kts 326°
2026-04-26 18:21 35.22154 -80.93691 750 ft 9 kts 327°
2026-04-26 18:22 35.22197 -80.93746 748 ft 9 kts 287°
2026-04-26 18:22 35.22177 -80.93816 746 ft 9 kts 225°
2026-04-26 18:22 35.22134 -80.93872 746 ft 9 kts 234°
2026-04-26 18:22 35.22117 -80.93899 746 ft 2 kts 232°
2026-04-26 18:23 35.22108 -80.93912 746 ft 0 kts 233°